カタログに戻る

SL-12 R/B(2)

運用中GEO
NORAD 21046·ROCKET BODY·🇷🇺 Russia

打ち上げ Nov 23, 1990 から Baikonur Cosmodrome

Loading…

TLE

最新Source: Space-Track

元期: Aug 29, 2026, 19:27 UTC

1 21046U 90102D   26241.81084395 -.00000057  00000-0  00000+0 0  9990
2 21046  13.8212 340.3886 0019169 216.6355 120.6815  0.97865531119309

AllMySatでSL-12 R/B(2)をリアルタイム追跡

Download on the App Store